#timestamp,LO_Frequency,Hit,StdDev 
1616457615.0,286046993.7,Y
1616457615.9,286046993.7,P
1616457635.8,286046998.7,N
1616457655.6,286047000.7,N
1616457675.5,286047000.3,N
1616457695.3,286047001.4,N
1616457715.1,286046998.3,N
1616457735.9,286046998.1,N
1616457755.7,286047004.1,N
1616457775.5,286047001.6,N
1616457795.4,286046999.7,N
1616457815.2,286047002.7,N
1616457835.1,286047002.9,N
1616457836.0,286047002.9,N
1616457855.8,286047002.9,N
1616457875.6,286047003.1,N
1616457895.5,286047000.2,N
1616457915.3,286047001.6,N
1616457935.1,286047003.1,N
1616457955.9,286047002.0,N
1616457975.7,286047002.4,N
1616457995.5,286047000.4,N
1616458015.4,286046998.8,N
1616458035.2,286046995.4,N
1616458055.1,286047000.6,N
1616458056.0,286047000.6,N
1616458075.8,286047001.9,N
1616458095.6,286047003.3,N
1616458115.5,286047002.7,N
1616458135.3,286046998.2,N
1616458155.1,286047001.0,N
1616458175.9,286046996.5,N
1616458195.7,286046999.2,N
1616458215.6,286046998.5,N
1616458235.4,286046999.3,N
1616458255.2,286047000.7,N
1616458275.1,286046998.8,N
1616458276.0,286046998.8,N
1616458295.8,286046999.5,N
1616458315.6,286046998.4,N
1616458335.5,286046997.8,N
1616458355.3,286046998.0,N
1616458375.2,286046998.5,N
1616458395.9,286046999.2,N
1616458415.7,286047000.3,N
1616458435.6,286046999.7,N
1616458455.4,286047002.5,N
1616458475.2,286047002.5,N
1616458495.1,286047000.3,N
1616458496.0,286047000.3,N
1616458515.8,286047001.6,N
1616458535.7,286047003.8,N
1616458555.5,286047004.1,N
1616458575.3,286047000.2,N
1616458595.2,286047001.1,N
1616458615.0,286047000.9,N
1616458615.9,286047000.9,N
1616458635.8,286047000.8,N
1616458655.6,286047001.9,N
1616458675.4,286047001.6,N
1616458695.3,286046999.9,N
1616458715.1,286047000.5,N
1616458735.8,286046999.3,N
1616458755.7,286047000.7,N
1616458775.5,286046997.2,N
1616458795.4,286047001.1,N
1616458815.2,286046999.3,N
1616458835.0,286047003.3,N
1616458835.9,286047003.3,N
1616458885.8,286047004.2,E
1616458895.7,286047002.6,N
1616458915.5,286046994.1,P
1616458935.4,286046992.1,N
1616458955.2,286046997.7,N
1616458975.1,286046996.4,N
1616458976.0,286046996.4,N
1616458995.8,286046995.0,N
1616459015.6,286046993.9,N
1616459035.5,286046995.5,N
1616459055.3,286046997.9,N
1616459075.1,286046996.2,N
1616459095.9,286046993.7,N
1616459115.7,286046995.5,N
1616459135.6,286046994.7,N
1616459155.4,286046994.5,N
1616459175.2,286046994.1,N
1616459195.1,286046995.9,N
1616459196.0,286046995.9,N
1616459215.8,286046996.1,N
1616459235.6,286046999.7,N
1616459255.5,286046998.5,N
1616459275.3,286046999.2,N
1616459295.2,286046997.8,N
1616459315.9,286046995.4,N
1616459335.7,286046997.1,N
1616459355.6,286046996.6,N
1616459375.4,286046998.0,N
1616459395.2,286046993.3,Y
1616459415.1,286046999.3,P
1616459416.0,286046999.3,N
1616459435.8,286046998.5,N
1616459455.7,286046998.8,N
1616459475.5,286046996.6,Y
1616459495.3,286047000.3,P
1616459515.2,286047002.0,N
1616459535.0,286047004.4,P
1616459535.9,286047004.4,N
1616459555.8,286047002.6,N
1616459575.6,286047000.6,N
1616459595.4,286046999.6,N
1616459615.3,286046998.5,N
1616459635.1,286047000.0,N
1616459655.8,286047000.8,N
1616459675.7,286046998.1,N
1616459695.5,286046998.8,N
1616459715.3,286046996.6,N
1616459735.2,286046998.8,N
1616459755.0,286047000.1,N
1616459755.9,286047000.1,N
1616459775.8,286047000.3,N
1616459795.6,286047001.1,N
1616459815.4,286047002.8,N
1616459835.3,286047000.4,N
1616459855.1,286047002.6,N
1616459875.9,286047003.5,N
1616459895.7,286047005.4,N
1616459915.5,286047003.2,N
1616459935.4,286047007.4,Y
1616459955.2,286047006.4,P
1616459975.0,286047004.8,N
1616459975.9,286047004.8,N
1616459995.8,286047008.4,Y
1616460015.6,286047001.7,P
1616460035.5,286047004.4,P
1616460055.3,286047007.4,P
1616460075.1,286047003.2,N
1616460095.9,286047005.5,N
1616460115.7,286047007.4,Y
1616460135.5,286047001.1,P
1616460155.4,286047004.3,N
1616460175.2,286046999.7,N
1616460195.1,286047002.6,N
1616460196.0,286047002.6,N
1616460215.8,286047001.7,N
1616460235.6,286046998.5,N
1616460255.5,286046998.1,N
1616460275.3,286046999.2,N
1616460295.1,286047001.2,N
1616460315.9,286046998.4,N
1616460335.7,286047001.9,N
1616460355.6,286047004.4,N
1616460375.4,286047002.8,N
1616460395.2,286047000.6,N
1616460415.1,286046998.3,N
1616460416.0,286046998.3,N
1616460435.8,286046998.8,N
1616460455.6,286047001.1,N
1616460475.5,286046996.9,N
1616460495.3,286046999.7,N
1616460515.1,286047002.2,N
1616460535.9,286047003.5,N
1616460555.7,286047005.6,N
1616460575.6,286047000.1,N
1616460595.4,286047002.8,N
1616460615.2,286046999.0,N
1616460635.1,286047001.0,N
1616460636.0,286047001.0,N
1616460655.8,286046996.8,N
1616460675.6,286046998.8,N
1616460695.5,286046996.6,N
1616460715.3,286047001.2,N
1616460735.2,286047000.2,N
1616460755.9,286047001.4,N
1616460775.7,286047004.2,N
1616460795.6,286047005.7,N
1616460815.4,286047004.6,N
1616460835.2,286047003.0,N
1616460855.1,286047001.3,N
1616460856.0,286047001.3,N
1616460875.8,286047007.4,N
1616460895.7,286047004.4,N
1616460915.5,286047002.8,N
1616460935.3,286047003.0,N
1616460955.2,286047000.1,N
1616461005.9,286047004.3,E
1616461015.9,286047000.7,N
1616461035.7,286046994.5,P
1616461055.5,286046990.6,P
1616461075.4,286046990.8,N
1616461095.2,286046994.1,N
1616461115.0,286046995.9,N
1616461115.9,286046995.9,N
1616461135.8,286046992.1,N
1616461155.6,286046992.9,N
1616461175.5,286046992.0,N
1616461195.3,286046994.8,N
